Regional Weather Roundup
Issued by NWS

Home | Current Version | Previous Version | Text Only | Print | Product List | Glossary On
Versions: 1 2 3 4 5 6 7 8 9 10 11 12 13 14 15 16 17 18 19 20 21 22 23 24 25 26 27 28 29 30 31 32 33 34 35 36 37 38 39 40 41 42 43 44 45 46 47 48 49 50
000
ASUS43 KLSX 241759
RWRMO

WEATHER SUMMARY FOR MISSOURI
NATIONAL WEATHER SERVICE SPRINGFIELD MO
100 PM CDT THU APR 24 2014

NOTE: "FAIR" INDICATES FEW OR NO CLOUDS BELOW 12,000 FEET WITH NO
       SIGNIFICANT WEATHER AND/OR OBSTRUCTIONS TO VISIBILITY.
       CURRENT SKY AND/OR WEATHER CONDITIONS ARE NOT AVAILABLE FOR
       CHILLICOTHE AND FARMINGTON.

MOZ001>031-035>038-043-044-053-054-241900-
...NORTHERN AND WESTERN MISSOURI...

CITY           SKY/WX    TMP DP  RH WIND       PRES   REMARKS
KANSAS CTY INT TSTM      58  57  97 W16G23    29.63S VSB 3/4
6HR MIN TEMP:  57; 6HR MAX TEMP:  62; 6HR PCP:  0.54;

KANSAS C DTWN  TSTM      60  58  92 W10       29.62R VSB 1/2
6HR MIN TEMP:  58; 6HR MAX TEMP:  66; 6HR PCP:  0.85;

LEE`S SUMMIT   CLOUDY    60  56  86 S14G21    29.60S
6HR MIN TEMP:  56; 6HR MAX TEMP:  63; 6HR PCP:  0.68;

ST JOSEPH      TSTM      55  53  93 NW23G33   29.68R VSB 1
6HR MIN TEMP:  55; 6HR MAX TEMP:  64; 6HR PCP:  0.71;

CHILLICOTHE      N/A     58  53  84 SE12      29.62F
6HR MIN TEMP:  53; 6HR MAX TEMP:  60; 6HR PCP:  0.61;

KIRKSVILLE     LGT RAIN  52  50  93 SE17G24   29.70F
6HR MIN TEMP:  51; 6HR MAX TEMP:  58; 6HR PCP:  0.27;


$$
MOZ066>068-077>081-088>096-101>105-241900-
...SOUTHWEST MISSOURI...

CITY           SKY/WX    TMP DP  RH WIND       PRES   REMARKS
SPRINGFIELD    FAIR      72  54  53 S18       29.67F
6HR MIN TEMP:  62; 6HR MAX TEMP:  73; 6HR PCP: TRACE;

JOPLIN         LGT RAIN  67  58  72 S28G36    29.66S
6HR MIN TEMP:  62; 6HR MAX TEMP:  73; 6HR PCP:  0.07;


$$
MOZ032>034-039>042-045>050-055>058-069>072-241900-
...CENTRAL MISSOURI...

CITY           SKY/WX    TMP DP  RH WIND       PRES   REMARKS
COLUMBIA       PTSUNNY   69  49  48 SE6       29.69F
6HR MIN TEMP:  57; 6HR MAX TEMP:  69; 6HR PCP: TRACE;

JEFFERSON CITY PTSUNNY   72  50  45 SW8       29.68F
6HR MIN TEMP:  59; 6HR MAX TEMP:  73;

ROLLA          PTSUNNY   70  50  49 S15G24    29.70F
6HR MIN TEMP:  57; 6HR MAX TEMP:  74; 6HR PCP: TRACE;

SEDALIA        CLOUDY    63  54  72 SE10      29.65F
6HR MIN TEMP:  59; 6HR MAX TEMP:  64; 6HR PCP:  0.07;

OSAGE BEACH    FAIR      72  50  46 SE13      29.69F

$$
MOZ051-052-059>065-241900-
...EAST CENTRAL MISSOURI...

CITY           SKY/WX    TMP DP  RH WIND       PRES   REMARKS
ST LOUIS INTL  PTSUNNY   73  42  32 SE16G22   29.78F
6HR MIN TEMP:  55; 6HR MAX TEMP:  74;

SPIRIT OF STL  PTSUNNY   74  43  32 S10G20    29.74F
6HR MIN TEMP:  52; 6HR MAX TEMP:  74;

ST CHARLES     FAIR      73  43  33 S17G25    29.76F
6HR MIN TEMP:  50; 6HR MAX TEMP:  73;


$$
MOZ072>076-082>087-097>100-106>115-241900-
...SOUTH CENTRAL AND SOUTHEAST MISSOURI...

CITY           SKY/WX    TMP DP  RH WIND       PRES   REMARKS
CAPE GIRARDEAU FAIR      75  47  36 SW15G24   29.85S
6HR MIN TEMP:  53; 6HR MAX TEMP:  76;

FARMINGTON     PTSUNNY   72  43  35 S12       29.83F
6HR MIN TEMP:  50; 6HR MAX TEMP:  73;

POPLAR BLUFF   FAIR      76  46  34 SW15      29.83F
6HR MIN TEMP:  49; 6HR MAX TEMP:  77;

WEST PLAINS    FAIR      70  50  49 SE14G24   29.72F
6HR MIN TEMP:  55; 6HR MAX TEMP:  70;


$$



USA.gov is the U.S. government's official web portal to all federal, state and local government web resources and services.